TimeEST,TemperatureF,Dew PointF,Humidity,Sea Level PressureIn,VisibilityMPH,Wind Direction,Wind SpeedMPH,Gust SpeedMPH,PrecipitationIn,Events,Conditions,WindDirDegrees,DateUTC
12:02 AM,10.4,6.8,85,29.92,0.8,NNW,11.5,-,0.00,Snow,Light Snow,340,2013-02-09 05:02:00
12:17 AM,10.4,6.8,85,29.90,0.8,NNW,10.4,-,0.01,Snow,Light Snow,340,2013-02-09 05:17:00
12:52 AM,10.9,5.0,77,29.96,1.0,North,10.4,-,0.02,Snow,Light Snow,350,2013-02-09 05:52:00
1:38 AM,10.4,5.0,79,29.87,1.0,North,6.9,17.3,0.01,Snow,Light Snow,350,2013-02-09 06:38:00
1:52 AM,10.0,5.0,80,29.94,1.0,North,8.1,-,0.02,Snow,Light Snow,350,2013-02-09 06:52:00
2:34 AM,10.4,5.0,79,29.84,0.8,NNW,8.1,-,0.01,Snow,Light Snow,340,2013-02-09 07:34:00
2:52 AM,10.0,5.0,80,29.91,0.8,North,9.2,-,0.02,Snow,Light Snow,350,2013-02-09 07:52:00
2:59 AM,10.4,5.0,79,29.84,1.0,North,6.9,-,0.00,Snow,Light Snow,350,2013-02-09 07:59:00
3:16 AM,10.4,5.0,79,29.86,1.2,North,6.9,-,0.01,Snow,Light Snow,360,2013-02-09 08:16:00
3:23 AM,10.4,5.0,79,29.85,2.0,North,4.6,-,0.01,Snow,Light Snow,350,2013-02-09 08:23:00
3:45 AM,10.4,5.0,79,29.85,1.5,NNE,8.1,17.3,0.01,Snow,Light Snow,20,2013-02-09 08:45:00
3:52 AM,10.9,3.9,73,29.92,1.2,North,12.7,17.3,0.01,Snow,Light Snow,360,2013-02-09 08:52:00
4:03 AM,10.4,5.0,79,29.85,0.8,North,9.2,17.3,0.01,Snow,Light Snow,10,2013-02-09 09:03:00
4:26 AM,10.4,6.8,85,29.85,0.5,NNW,6.9,-,0.02,Snow,Snow,340,2013-02-09 09:26:00
4:52 AM,10.9,7.0,84,29.91,0.5,North,8.1,-,0.05,Fog-Snow,Snow,350,2013-02-09 09:52:00
5:52 AM,10.9,6.1,81,29.92,0.8,North,15.0,20.7,0.03,Snow,Light Snow,10,2013-02-09 10:52:00
6:52 AM,10.0,5.0,80,29.94,0.8,North,13.8,-,0.02,Snow,Light Snow,360,2013-02-09 11:52:00
7:22 AM,10.4,3.2,73,29.87,0.8,North,10.4,-,0.01,,Haze,360,2013-02-09 12:22:00
7:45 AM,10.4,5.0,79,29.88,0.8,NNW,4.6,-,0.03,Snow,Light Snow,340,2013-02-09 12:45:00
7:52 AM,10.0,5.0,80,29.95,0.8,NNW,4.6,-,0.03,Snow,Light Snow,330,2013-02-09 12:52:00
8:05 AM,10.4,3.2,73,29.88,1.0,NNW,4.6,-,0.01,Snow,Light Snow,330,2013-02-09 13:05:00
8:39 AM,8.6,3.2,79,29.89,0.8,NW,6.9,-,0.02,Snow,Light Snow,320,2013-02-09 13:39:00
8:48 AM,8.6,3.2,79,29.89,1.5,NNW,6.9,-,0.02,Snow,Light Snow,330,2013-02-09 13:48:00
8:52 AM,9.0,3.9,80,29.97,1.8,NNW,4.6,-,0.03,Snow,Light Snow,340,2013-02-09 13:52:00
9:18 AM,8.6,3.2,79,29.90,2.0,NNW,9.2,-,0.00,Snow,Light Snow,340,2013-02-09 14:18:00
9:28 AM,10.4,3.2,73,29.90,1.5,NNW,6.9,-,0.00,Snow,Light Snow,330,2013-02-09 14:28:00
9:37 AM,10.4,3.2,73,29.90,1.0,NNW,6.9,-,0.00,Snow,Light Snow,340,2013-02-09 14:37:00
9:52 AM,10.0,3.0,73,29.98,0.8,North,5.8,-,0.00,Snow,Light Snow,350,2013-02-09 14:52:00
10:10 AM,10.4,3.2,73,29.91,1.0,NNW,9.2,-,0.00,Snow,Light Snow,340,2013-02-09 15:10:00
10:49 AM,10.4,3.2,73,29.93,0.8,NNW,6.9,-,0.01,Snow,Light Snow,330,2013-02-09 15:49:00
10:52 AM,10.0,3.9,76,30.01,0.8,NNW,8.1,-,0.01,Snow,Light Snow,340,2013-02-09 15:52:00
11:20 AM,10.4,3.2,73,29.94,1.2,NNW,6.9,-,0.00,Snow,Light Snow,330,2013-02-09 16:20:00
11:33 AM,10.4,3.2,73,29.94,1.5,NNW,9.2,18.4,0.00,Snow,Light Snow,340,2013-02-09 16:33:00
11:52 AM,10.9,3.0,70,30.02,1.8,NNW,11.5,20.7,0.00,Snow,Light Snow,330,2013-02-09 16:52:00
12:01 PM,10.4,3.2,73,29.94,2.0,NNW,10.4,17.3,0.00,Snow,Light Snow,330,2013-02-09 17:01:00
12:12 PM,10.4,3.2,73,29.94,1.8,NNW,9.2,21.9,0.00,Snow,Light Snow,330,2013-02-09 17:12:00
12:52 PM,10.9,3.9,73,30.03,1.5,NNW,6.9,-,0.00,Snow,Light Snow,330,2013-02-09 17:52:00
12:59 PM,10.4,3.2,73,29.95,2.0,NW,9.2,-,0.00,Snow,Light Snow,320,2013-02-09 17:59:00
1:42 PM,12.2,3.2,67,29.96,1.8,NNW,13.8,21.9,0.00,Snow,Light Snow,330,2013-02-09 18:42:00
1:52 PM,12.0,3.9,70,30.04,1.5,NNW,13.8,21.9,0.00,Snow,Light Snow,340,2013-02-09 18:52:00
2:52 PM,12.0,3.9,70,30.07,1.8,NNW,8.1,16.1,0.00,Snow,Light Snow,330,2013-02-09 19:52:00
3:20 PM,12.2,5.0,73,30.00,2.0,NNW,10.4,19.6,0.00,Snow,Light Snow,340,2013-02-09 20:20:00
3:34 PM,12.2,3.2,67,30.01,2.0,NNW,15.0,23.0,0.00,Snow,Light Snow,330,2013-02-09 20:34:00
3:50 PM,12.2,3.2,67,30.01,3.0,NNW,12.7,23.0,0.00,Snow,Light Snow,340,2013-02-09 20:50:00
3:52 PM,12.9,3.0,65,30.09,3.0,NNW,10.4,23.0,0.00,Snow,Light Snow,330,2013-02-09 20:52:00
4:52 PM,12.9,3.0,65,30.12,10.0,NNW,11.5,21.9,0.00,,Overcast,330,2013-02-09 21:52:00
5:52 PM,12.9,1.9,62,30.14,10.0,NNW,9.2,18.4,N/A,,Overcast,340,2013-02-09 22:52:00
6:52 PM,12.9,1.9,62,30.17,10.0,NNW,9.2,17.3,N/A,,Partly Cloudy,330,2013-02-09 23:52:00
7:52 PM,10.9,-0.0,61,30.19,10.0,Variable,5.8,-,N/A,,Clear,0,2013-02-10 00:52:00
8:52 PM,10.9,-0.0,61,30.21,10.0,NW,9.2,-,N/A,,Clear,320,2013-02-10 01:52:00
9:52 PM,10.0,-2.0,58,30.23,10.0,Variable,5.8,-,N/A,,Clear,0,2013-02-10 02:52:00
10:52 PM,8.1,-2.9,61,30.25,10.0,Calm,Calm,-,N/A,,Clear,0,2013-02-10 03:52:00
11:52 PM,-0.0,-6.0,76,30.27,10.0,Calm,Calm,-,N/A,,Clear,0,2013-02-10 04:52:00